sat.trackr.live / text

‹ back to catalog

STARLINK-37193

NORAD 68390 · 2026-063L

PAYLOAD ACTIVE UNKNOWN

§ Identity

Operator
Country
US
Launch date
2026-03-26
Launch site
AFWTR
Launch vehicle
Mass (kg)
RCS (m²)

Purposes: comms

External: N2YO · Heavens-Above · Gunter

§ Orbital elements

Epoch: 2026-09-20T04:36:21.925152Z

Period
93.91 min
Inclination
97.2856°
Eccentricity
0.0000931
Mean motion
15.33441814 rev/d
Perigee alt
464.9 km
Apogee alt
466.2 km
Semi-major
6,843.7 km
B*
2.0962e-4
RAAN
46.9951°
Arg perigee
87.7617°
Mean anomaly
272.3733°
Rev number
2,789

§ Raw data

STARLINK-371931 68390U 26063L   26263.19192043  .00006698  00000+0  20962-3 0  99912 68390  97.2856  46.9951 0000931  87.7617 272.3733 15.33441814 27895

JSON: /api/v1/satellites/68390 · /tle

For live sub-satellite position, see the globe view (requires WebGL).

§ Visibility from observer

Set your observer location to see the next 7 days of passes ≥ 10°. The values pass through the URL so the page stays shareable.

No JS? Fill the form by hand. The geolocation button needs JavaScript.